Location: Unspecified
(12.6500°N, 0.0000°E)
Time: 07:40:43
(UTC+00:00)

Envisat - Visible Passes

Search period start: 16 October 2019 00:00
Search period end: 26 October 2019 00:00
Orbit: 764 x 766 km, 98.1° (Epoch: 15 October)

Date Brightness Start Highest point End Pass type
(mag) Time Alt. Az. Time Alt. Az. Time Alt. Az.
16 Oct 3.0 18:10:55 10° SSE 18:15:54 58° ENE 18:20:52 10° N visible
17 Oct 5.3 19:14:02 10° SSW 19:18:03 24° W 19:22:06 10° NW visible
18 Oct 3.4 18:36:18 10° S 18:41:20 68° W 18:46:22 10° NNW visible
19 Oct 3.3 17:59:54 10° SSE 18:04:40 43° ENE 18:09:27 10° N visible
19 Oct 6.2 19:42:04 10° WSW 19:43:34 11° W 19:45:04 10° W visible
20 Oct 4.8 19:02:18 10° SSW 19:06:48 32° W 19:11:18 10° NW visible
21 Oct 3.0 18:25:01 10° SSE 18:30:05 89° E 18:35:10 10° NNW visible
22 Oct 3.7 17:49:00 10° SE 17:53:28 32° ENE 17:57:54 10° NNE visible
22 Oct 5.9 19:29:19 10° SW 19:32:18 16° W 19:35:17 10° WNW visible
23 Oct 4.2 18:50:45 10° S 18:55:33 44° W 19:00:21 10° NNW visible
24 Oct 2.9 18:13:50 10° SSE 18:18:51 66° ENE 18:23:52 10° N visible
25 Oct 5.5 19:17:14 10° SSW 19:21:02 21° W 19:24:50 10° NW visible
